TimeEDT,TemperatureF,Dew PointF,Humidity,Sea Level PressureIn,VisibilityMPH,Wind Direction,Wind SpeedMPH,Gust SpeedMPH,PrecipitationIn,Events,Conditions,WindDirDegrees,DateUTC
12:15 AM,59.0,59.0,100,29.85,3.0,SSW,4.6,-,N/A,,Overcast,200,2012-09-23 04:15:00
12:35 AM,59.0,59.0,100,29.85,5.0,South,4.6,-,N/A,,Overcast,180,2012-09-23 04:35:00
12:55 AM,59.0,59.0,100,29.85,4.0,SSE,5.8,-,N/A,,Overcast,160,2012-09-23 04:55:00
1:15 AM,59.0,59.0,100,29.85,1.0,South,5.8,-,N/A,,Overcast,180,2012-09-23 05:15:00
1:35 AM,59.0,59.0,100,29.84,0.5,South,3.5,-,N/A,,Overcast,180,2012-09-23 05:35:00
1:55 AM,59.0,59.0,100,29.83,0.5,SSE,3.5,-,N/A,,Overcast,150,2012-09-23 05:55:00
2:15 AM,59.0,59.0,100,29.82,1.2,South,4.6,-,N/A,,Overcast,170,2012-09-23 06:15:00
2:35 AM,59.0,59.0,100,29.82,3.0,Calm,Calm,-,N/A,,Overcast,0,2012-09-23 06:35:00
2:55 AM,59.0,59.0,100,29.81,5.0,ESE,3.5,-,N/A,,Overcast,120,2012-09-23 06:55:00
3:15 AM,59.0,59.0,100,29.80,8.0,SE,5.8,-,N/A,,Overcast,140,2012-09-23 07:15:00
3:35 AM,60.8,59.0,94,29.80,10.0,SSE,5.8,-,N/A,,Overcast,150,2012-09-23 07:35:00
3:55 AM,60.8,60.8,100,29.79,10.0,South,9.2,-,N/A,,Overcast,170,2012-09-23 07:55:00
4:15 AM,60.8,60.8,100,29.79,10.0,SSE,8.1,-,N/A,,Overcast,150,2012-09-23 08:15:00
4:35 AM,60.8,60.8,100,29.79,10.0,SE,5.8,-,N/A,,Overcast,140,2012-09-23 08:35:00
4:55 AM,60.8,60.8,100,29.79,10.0,South,5.8,-,N/A,,Overcast,180,2012-09-23 08:55:00
5:15 AM,60.8,59.0,94,29.79,10.0,South,6.9,18.4,N/A,,Overcast,190,2012-09-23 09:15:00
5:35 AM,60.8,60.8,100,29.79,10.0,SSW,5.8,-,N/A,,Overcast,210,2012-09-23 09:35:00
5:55 AM,60.8,59.0,94,29.79,10.0,SSW,6.9,-,N/A,,Overcast,210,2012-09-23 09:55:00
6:15 AM,60.8,59.0,94,29.78,10.0,SSW,5.8,-,N/A,,Overcast,200,2012-09-23 10:15:00
6:35 AM,62.6,60.8,94,29.80,10.0,SW,8.1,-,N/A,,Overcast,230,2012-09-23 10:35:00
6:56 AM,62.6,62.6,100,29.80,10.0,WSW,8.1,-,N/A,,Overcast,240,2012-09-23 10:56:00
7:15 AM,62.6,62.6,100,29.80,9.0,SW,6.9,-,N/A,,Overcast,230,2012-09-23 11:15:00
7:35 AM,62.6,62.6,100,29.80,10.0,SW,5.8,-,N/A,,Overcast,230,2012-09-23 11:35:00
7:55 AM,62.6,62.6,100,29.81,10.0,WSW,8.1,-,N/A,,Overcast,250,2012-09-23 11:55:00
8:15 AM,64.4,62.6,94,29.82,10.0,West,5.8,-,N/A,,Overcast,270,2012-09-23 12:15:00
8:35 AM,62.6,60.8,94,29.83,10.0,West,9.2,-,N/A,,Overcast,280,2012-09-23 12:35:00
9:15 AM,62.6,60.8,94,29.84,10.0,West,8.1,-,N/A,,Mostly Cloudy,280,2012-09-23 13:15:00
9:35 AM,64.4,60.8,88,29.84,10.0,WNW,8.1,-,N/A,,Mostly Cloudy,290,2012-09-23 13:35:00
9:55 AM,66.2,60.8,83,29.85,10.0,NW,8.1,17.3,N/A,,Mostly Cloudy,320,2012-09-23 13:55:00
10:15 AM,64.4,57.2,77,29.86,10.0,NW,5.8,16.1,N/A,,Mostly Cloudy,320,2012-09-23 14:15:00
10:35 AM,66.2,57.2,73,29.86,10.0,NW,6.9,-,N/A,,Scattered Clouds,310,2012-09-23 14:35:00
10:55 AM,66.2,59.0,78,29.86,10.0,West,9.2,-,N/A,,Scattered Clouds,280,2012-09-23 14:55:00
11:15 AM,66.2,55.4,68,29.86,10.0,WNW,9.2,-,N/A,,Mostly Cloudy,300,2012-09-23 15:15:00
11:35 AM,68.0,53.6,60,29.87,10.0,West,11.5,16.1,N/A,,Partly Cloudy,270,2012-09-23 15:35:00
11:55 AM,66.2,53.6,64,29.87,10.0,WNW,11.5,18.4,N/A,,Partly Cloudy,290,2012-09-23 15:55:00
12:15 PM,68.0,51.8,56,29.88,10.0,West,12.7,19.6,N/A,,Clear,280,2012-09-23 16:15:00
12:35 PM,69.8,51.8,53,29.88,10.0,West,15.0,-,N/A,,Clear,280,2012-09-23 16:35:00
12:55 PM,68.0,50.0,52,29.88,10.0,WNW,10.4,20.7,N/A,,Clear,300,2012-09-23 16:55:00
1:15 PM,68.0,48.2,49,29.88,10.0,West,13.8,17.3,N/A,,Clear,270,2012-09-23 17:15:00
1:35 PM,69.8,48.2,46,29.88,10.0,NW,8.1,-,N/A,,Clear,310,2012-09-23 17:35:00
1:55 PM,69.8,48.2,46,29.88,10.0,WNW,11.5,-,N/A,,Clear,290,2012-09-23 17:55:00
2:15 PM,69.8,48.2,46,29.88,10.0,WNW,11.5,-,N/A,,Clear,290,2012-09-23 18:15:00
2:35 PM,69.8,48.2,46,29.88,10.0,West,12.7,17.3,N/A,,Clear,280,2012-09-23 18:35:00
2:55 PM,68.0,46.4,46,29.88,10.0,West,12.7,16.1,N/A,,Clear,280,2012-09-23 18:55:00
3:15 PM,69.8,48.2,46,29.89,10.0,West,11.5,-,N/A,,Scattered Clouds,280,2012-09-23 19:15:00
3:35 PM,69.8,46.4,43,29.89,10.0,West,11.5,16.1,N/A,,Partly Cloudy,270,2012-09-23 19:35:00
3:55 PM,68.0,46.4,46,29.90,10.0,WNW,6.9,-,N/A,,Clear,300,2012-09-23 19:55:00
4:15 PM,68.0,44.6,43,29.91,10.0,West,10.4,-,N/A,,Clear,270,2012-09-23 20:15:00
4:35 PM,68.0,44.6,43,29.91,10.0,WNW,9.2,-,N/A,,Clear,300,2012-09-23 20:35:00
4:55 PM,66.2,42.8,43,29.92,10.0,West,11.5,16.1,N/A,,Clear,280,2012-09-23 20:55:00
5:15 PM,66.2,42.8,43,29.93,10.0,West,9.2,-,N/A,,Clear,280,2012-09-23 21:15:00
5:35 PM,64.4,44.6,49,29.94,10.0,West,9.2,-,N/A,,Clear,270,2012-09-23 21:35:00
5:55 PM,64.4,46.4,52,29.94,10.0,West,5.8,-,N/A,,Clear,280,2012-09-23 21:55:00
6:15 PM,62.6,44.6,52,29.95,10.0,WNW,3.5,-,N/A,,Clear,300,2012-09-23 22:15:00
6:35 PM,57.2,46.4,67,29.96,10.0,Calm,Calm,-,N/A,,Clear,0,2012-09-23 22:35:00
6:55 PM,53.6,48.2,82,29.96,10.0,Calm,Calm,-,N/A,,Clear,0,2012-09-23 22:55:00
7:15 PM,53.6,48.2,82,29.97,10.0,Calm,Calm,-,N/A,,Clear,0,2012-09-23 23:15:00
7:35 PM,51.8,48.2,88,29.98,10.0,Calm,Calm,-,N/A,,Clear,0,2012-09-23 23:35:00
7:55 PM,51.8,48.2,88,29.98,10.0,Calm,Calm,-,N/A,,Clear,0,2012-09-23 23:55:00
8:15 PM,50.0,48.2,94,29.99,10.0,WNW,3.5,-,N/A,,Clear,290,2012-09-24 00:15:00
8:35 PM,50.0,46.4,87,29.99,10.0,Calm,Calm,-,N/A,,Clear,0,2012-09-24 00:35:00
8:55 PM,48.2,46.4,93,30.01,10.0,Calm,Calm,-,N/A,,Clear,0,2012-09-24 00:55:00
9:15 PM,48.2,46.4,93,30.01,10.0,WNW,3.5,-,N/A,,Clear,290,2012-09-24 01:15:00
9:35 PM,46.4,44.6,93,30.02,10.0,West,3.5,-,N/A,,Clear,280,2012-09-24 01:35:00
9:55 PM,46.4,44.6,93,30.02,10.0,Calm,Calm,-,N/A,,Clear,0,2012-09-24 01:55:00
10:15 PM,46.4,44.6,93,30.03,10.0,NW,4.6,-,N/A,,Clear,320,2012-09-24 02:15:00
10:35 PM,48.2,42.8,82,30.03,10.0,NW,4.6,-,N/A,,Clear,320,2012-09-24 02:35:00
10:55 PM,53.6,41.0,62,30.03,10.0,NNW,4.6,-,N/A,,Clear,330,2012-09-24 02:55:00
11:15 PM,48.2,42.8,82,30.03,10.0,Calm,Calm,-,N/A,,Clear,0,2012-09-24 03:15:00
11:35 PM,44.6,41.0,87,30.03,10.0,WNW,3.5,-,N/A,,Clear,290,2012-09-24 03:35:00
11:55 PM,44.6,42.8,93,30.04,10.0,WNW,3.5,-,N/A,,Clear,290,2012-09-24 03:55:00